Wind_Speed
70 71 71 70 69 67 66 66 66 64 62 64 66 68 70 70 71 72 73 73 74 74 73 73 73 72 71 71 72 72 71 69 67 65 62 60 59 58
71 70 69 67 66 66 66 65 66 65 62 63 66 68 70 71 71 71 71 70 67 65 64 62 62 61 60 60 61 63 64 65 65 65 63 61 59 58
69 67 66 65 64 63 63 64 65 65 64 64 66 68 69 69 68 67 63 59 55 52 51 49 49 49 49 50 51 52 55 57 60 62 63 62 60 58
65 65 64 62 62 63 63 64 65 66 66 65 64 64 63 61 58 53 48 44 42 41 41 40 40 40 41 41 42 43 45 47 51 55 59 61 59 58
62 61 61 61 61 62 63 64 65 65 64 62 58 55 50 46 42 38 35 34 32 32 31 32 32 33 33 34 34 35 36 38 42 46 51 57 59 58
60 60 60 61 61 62 62 62 62 59 56 51 45 40 36 33 30 27 26 26 26 25 24 25 26 27 27 27 27 28 30 31 34 37 43 50 54 57
58 59 60 60 61 60 59 57 53 48 42 36 32 29 27 25 24 22 21 22 22 21 20 21 21 21 22 22 22 23 25 27 30 33 38 43 49 53
57 58 58 57 56 54 51 47 42 36 29 25 23 22 21 21 20 19 19 18 19 18 18 18 18 18 18 17 18 18 20 22 26 29 33 38 43 48
54 53 52 51 48 43 38 34 30 25 21 19 18 19 19 19 19 18 18 18 18 18 18 17 17 15 15 13 13 14 15 18 21 25 28 32 37 43
48 46 44 40 36 31 27 24 21 19 18 17 18 18 19 19 19 19 19 20 21 20 19 18 17 16 14 13 12 11 12 14 17 21 25 28 33 38
41 38 33 28 25 21 18 16 15 15 16 17 18 19 20 20 21 21 21 21 20 21 20 19 18 17 16 14 13 12 11 12 14 18 22 26 30 35
33 29 24 19 15 13 12 12 13 15 17 18 20 20 20 20 20 19 18 17 16 16 16 15 15 14 14 14 13 12 12 12 13 15 19 23 28 32
25 21 16 13 11 11 12 12 14 16 17 18 19 19 18 17 16 15 15 13 13 12 12 11 11 10 10 11 12 12 12 12 12 14 17 20 24 29
18 14 10 9 10 11 12 13 15 16 18 18 17 16 15 14 14 14 13 13 13 13 12 12 11 10 9 8 8 8 9 9 11 12 14 17 21 25
11 8 7 8 10 11 12 13 15 17 17 16 15 15 15 15 15 14 15 15 15 16 15 14 13 11 9 7 5 4 4 5 7 8 11 13 17 21
5 4 5 7 9 11 11 13 15 16 15 16 16 16 16 16 16 16 16 17 18 18 18 18 16 14 12 10 7 5 3 1 2 4 7 10 14 18
0 2 5 7 9 10 11 13 15 15 15 17 17 16 17 17 17 17 17 18 19 19 20 19 18 16 15 14 12 9 7 6 5 5 7 9 12 16
4 4 6 7 8 10 12 14 15 15 16 17 17 17 17 18 18 18 18 18 19 20 21 21 20 18 18 17 15 13 12 11 11 11 11 11 13 15
6 6 7 7 8 10 13 14 15 17 18 18 18 18 18 19 20 20 20 19 19 20 21 22 21 21 20 19 17 17 18 18 17 17 17 17 18 19
7 7 7 8 10 12 14 15 16 18 19 20 20 21 21 22 22 23 23 21 21 21 22 22 22 22 22 22 21 22 23 23 22 21 21 22 22 22
8 8 9 9 11 12 14 16 17 19 20 21 22 23 23 25 26 26 26 25 24 24 23 23 23 24 25 25 24 24 25 25 25 25 24 23 22 22
9 9 10 11 12 13 15 16 17 19 21 22 22 23 24 26 28 29 30 29 28 27 26 26 26 27 26 25 24 25 25 26 25 25 24 24 23 22
10 10 11 12 13 14 15 16 17 19 20 21 22 23 24 26 28 30 31 31 30 29 29 29 29 28 27 25 24 24 24 24 24 23 22 22 22 20
Wind_Direction
301 301 301 300 300 299 297 296 295 293 291 289 287 286 286 286 286 286 285 285 284 284 283 281 279 277 274 271 269 265 262 258 255 251 248 246 243 243
301 301 301 300 299 298 297 296 295 294 293 290 288 287 287 287 288 288 288 289 288 286 284 282 279 276 273 270 266 262 258 254 250 246 243 241 239 239
301 301 300 299 299 298 297 296 295 294 294 292 291 290 290 291 291 291 291 290 289 287 285 282 279 276 273 270 266 261 256 252 246 241 238 235 234 234
301 301 300 300 299 298 297 296 296 295 295 294 293 294 294 294 294 295 294 292 290 287 285 283 280 277 274 271 267 262 257 252 246 240 235 231 230 230
301 301 300 300 299 298 297 296 296 296 297 297 297 297 298 298 297 297 297 295 293 291 289 287 284 281 278 274 269 264 258 251 245 240 234 230 227 225
302 301 300 300 299 298 298 298 298 299 300 302 302 301 300 300 301 301 300 299 299 298 296 291 288 286 282 277 271 264 257 250 244 238 233 229 225 223
302 301 300 300 299 300 300 300 301 303 304 303 303 303 303 304 305 305 304 303 304 305 303 298 295 291 286 280 273 265 257 249 242 237 232 228 225 221
301 301 301 302 302 303 304 304 305 306 306 305 305 306 307 308 308 308 307 307 307 309 309 306 303 297 293 288 277 267 257 247 241 236 231 228 225 222
301 302 303 304 306 306 307 307 308 311 313 313 312 312 312 312 311 310 310 309 308 307 307 306 306 303 300 297 287 272 258 246 238 233 230 226 223 221
303 305 307 308 308 308 308 308 311 316 318 319 320 319 317 315 313 311 309 307 306 304 302 301 300 300 298 295 290 281 265 250 239 231 226 223 221 219
306 308 310 310 309 310 312 314 318 322 325 326 325 323 320 318 315 312 310 308 305 303 302 298 294 291 289 287 284 279 270 257 243 233 226 221 219 217
310 312 314 314 316 321 326 329 331 331 330 329 326 324 322 321 321 321 319 317 314 313 311 307 301 293 287 283 279 274 269 260 247 235 226 221 219 217
310 313 316 323 331 338 339 338 337 335 334 332 331 331 332 334 337 340 341 342 342 338 334 330 324 316 301 291 282 273 265 257 248 237 228 223 219 216
309 312 321 333 342 345 344 342 342 343 343 344 347 352 356 358 360 4 6 9 9 8 3 357 352 345 333 316 299 280 267 257 248 239 230 223 218 214
304 312 330 344 348 347 347 348 349 351 354 0 8 13 15 17 21 23 24 25 25 23 19 15 13 12 9 1 348 321 286 262 246 232 222 217 212 208
292 324 350 355 355 353 354 358 0 6 15 21 21 23 26 29 32 34 36 35 33 33 32 29 27 27 28 29 33 36 34 35 198 199 200 200 199 198
139 28 12 7 4 5 8 10 16 27 30 27 30 34 36 38 39 39 38 37 36 35 32 30 29 33 37 40 46 56 68 81 104 132 153 167 177 181
98 56 31 20 19 21 22 25 34 37 35 35 37 39 40 40 40 39 37 36 36 35 34 35 38 44 48 49 55 67 79 89 96 105 115 127 143 154
86 62 44 38 36 36 37 43 47 44 43 43 43 43 42 40 38 35 33 33 35 39 41 43 46 53 58 61 66 79 88 92 94 99 105 110 120 129
80 64 55 51 50 50 50 55 54 51 50 50 50 48 46 43 40 37 37 38 41 45 48 50 53 60 66 70 76 86 92 92 93 96 100 104 111 117
76 67 64 62 62 60 61 62 60 58 56 54 53 52 50 48 46 45 45 47 49 53 55 57 62 68 72 74 79 87 92 95 96 97 98 101 105 109
75 72 72 74 72 70 70 69 66 63 59 56 56 55 53 51 50 50 50 53 55 58 61 64 66 70 74 76 81 87 92 94 97 100 104 106 108 110
78 79 82 84 81 78 76 74 70 66 63 60 59 59 57 55 54 54 54 55 59 62 64 66 67 70 73 76 80 85 90 94 97 99 104 109 111 113
Height
5714 5707 5700 5693 5686 5680 5674 5667 5663 5661 5659 5650 5640 5631 5622 5617 5611 5606 5602 5597 5593 5589 5585 5583 5580 5578 5577 5577 5578 5580 5584 5588 5594 5601 5608 5615 5622 5629
5698 5691 5684 5677 5670 5663 5657 5650 5643 5639 5637 5632 5622 5613 5605 5598 5592 5586 5581 5576 5571 5566 5562 5559 5556 5553 5552 5552 5553 5554 5558 5562 5569 5577 5586 5595 5603 5611
5682 5676 5669 5662 5655 5647 5640 5633 5626 5620 5617 5613 5603 5594 5586 5579 5573 5566 5561 5556 5551 5547 5543 5539 5536 5534 5533 5532 5532 5533 5536 5540 5546 5554 5564 5574 5584 5594
5667 5660 5653 5646 5639 5631 5624 5617 5609 5602 5597 5593 5586 5576 5568 5561 5555 5550 5545 5540 5536 5532 5528 5525 5522 5519 5518 5517 5516 5517 5519 5523 5528 5536 5545 5556 5567 5577
5652 5645 5638 5631 5623 5616 5608 5601 5593 5586 5578 5573 5568 5560 5553 5546 5542 5538 5533 5528 5524 5520 5517 5514 5511 5508 5506 5505 5504 5505 5507 5510 5515 5521 5529 5538 5549 5561
5637 5630 5623 5616 5609 5601 5593 5585 5578 5571 5564 5558 5552 5547 5541 5536 5532 5529 5525 5520 5516 5513 5509 5506 5502 5500 5498 5496 5495 5496 5497 5500 5504 5509 5516 5525 5535 5546
5623 5616 5608 5601 5594 5586 5579 5571 5564 5558 5552 5547 5542 5538 5534 5530 5526 5522 5519 5515 5510 5507 5503 5500 5496 5494 5491 5489 5488 5488 5489 5492 5496 5500 5506 5514 5523 5534
5611 5603 5594 5587 5580 5573 5565 5558 5553 5548 5544 5540 5536 5532 5528 5525 5521 5517 5514 5510 5506 5503 5499 5496 5492 5489 5486 5484 5483 5483 5483 5485 5489 5493 5498 5505 5514 5523
5599 5591 5583 5576 5569 5563 5556 5550 5545 5541 5538 5534 5531 5528 5524 5521 5517 5513 5509 5506 5502 5499 5495 5492 5489 5486 5483 5481 5479 5478 5479 5480 5483 5487 5492 5498 5506 5514
5588 5581 5574 5567 5561 5556 5551 5546 5542 5538 5534 5531 5527 5524 5520 5516 5512 5509 5505 5502 5498 5494 5491 5488 5485 5483 5480 5478 5477 5476 5476 5477 5479 5482 5486 5492 5499 5506
5578 5572 5567 5561 5556 5551 5547 5543 5540 5536 5532 5528 5524 5520 5516 5512 5508 5504 5500 5497 5493 5489 5486 5484 5481 5479 5477 5475 5474 5473 5473 5474 5475 5478 5481 5486 5492 5499
5571 5566 5561 5557 5552 5548 5545 5542 5538 5534 5530 5526 5522 5517 5513 5508 5504 5500 5496 5492 5489 5485 5482 5479 5477 5475 5473 5472 5471 5471 5471 5471 5472 5474 5477 5481 5487 5493
5565 5561 5557 5554 5550 5547 5544 5541 5537 5533 5529 5524 5519 5515 5510 5505 5501 5497 5493 5490 5486 5483 5480 5477 5474 5472 5470 5469 5468 5468 5468 5468 5469 5471 5473 5477 5482 5488
5561 5558 5555 5552 5550 5546 5543 5540 5536 5532 5527 5522 5517 5513 5508 5504 5500 5496 5493 5489 5486 5482 5479 5476 5473 5470 5468 5466 5465 5465 5465 5466 5466 5468 5470 5473 5477 5482
5558 5556 5554 5551 5549 5546 5543 5539 5535 5530 5526 5521 5517 5513 5509 5505 5501 5498 5494 5491 5487 5483 5480 5476 5473 5470 5467 5465 5464 5464 5463 5464 5464 5465 5467 5470 5473 5478
5555 5554 5553 5551 5549 5546 5543 5539 5535 5530 5526 5522 5518 5514 5510 5507 5503 5500 5496 5493 5489 5486 5482 5478 5474 5471 5468 5466 5464 5463 5463 5463 5464 5464 5466 5468 5471 5475
5554 5554 5552 5551 5549 5546 5543 5539 5535 5531 5527 5524 5520 5516 5513 5509 5506 5502 5499 5496 5492 5488 5485 5481 5477 5473 5470 5468 5466 5465 5464 5464 5465 5465 5467 5468 5471 5474
5554 5553 5552 5551 5549 5546 5543 5540 5537 5533 5530 5526 5523 5519 5516 5513 5509 5506 5502 5499 5495 5492 5488 5484 5480 5477 5474 5472 5470 5468 5468 5468 5468 5469 5470 5472 5474 5477
5554 5554 5553 5552 5550 5547 5545 5542 5539 5536 5533 5529 5526 5523 5519 5516 5513 5509 5505 5502 5498 5495 5492 5488 5485 5482 5479 5477 5476 5474 5473 5474 5475 5476 5477 5478 5481 5484
5555 5555 5554 5553 5551 5549 5547 5545 5542 5540 5537 5534 5530 5527 5524 5521 5517 5513 5509 5505 5502 5499 5496 5494 5491 5488 5486 5484 5483 5482 5481 5481 5483 5484 5486 5487 5490 5493
5557 5556 5556 5555 5553 5552 5550 5548 5546 5544 5541 5538 5535 5533 5529 5526 5522 5518 5514 5510 5507 5504 5502 5500 5497 5495 5493 5492 5492 5491 5490 5490 5491 5493 5495 5498 5501 5504
5559 5558 5558 5557 5556 5555 5554 5552 5551 5549 5546 5544 5541 5538 5536 5532 5529 5525 5521 5517 5514 5511 5509 5507 5505 5503 5502 5502 5501 5500 5500 5500 5501 5502 5504 5507 5510 5513
5561 5560 5560 5560 5559 5558 5558 5557 5555 5553 5551 5549 5547 5544 5542 5539 5536 5532 5529 5525 5522 5519 5517 5515 5513 5512 5511 5511 5511 5510 5509 5510 5511 5513 5514 5515 5518 5521